Weather History for Bennington, VT

Change the Weather History Date:

Wednesday, December 18, 2013

  Actual Average Record
Temperature  
Mean Temperature 17 °F 27 °F  
Max Temperature 28 °F 35 °F 50 °F (2006)
Min Temperature 6 °F 19 °F 0 °F (2007)
Degree Days  
Heating Degree Days 48 38  
Month to date heating degree days 696 630  
Since 1 July heating degree days 2227 2243  
Cooling Degree Days 0 0  
Month to date cooling degree days 0 0  
Year to date cooling degree days 503 313  
Moisture  
Dew Point 13 °F    
Average Humidity 76    
Maximum Humidity 88    
Minimum Humidity 63    
Precipitation  
Precipitation T in 0.09 in 0.30 in (2012)
Month to date precipitation 0.86 1.68  
Year to date precipitation 42.76 39.59  
Sea Level Pressure  
Sea Level Pressure 29.98 in    
Wind  
Wind Speed 2 mph (SW)    
Max Wind Speed 9 mph    
Max Gust Speed 13 mph    
Visibility 7 miles    
Events Snow    
T = Trace of Precipitation, MM = Missing Value Source: NWS Daily Summary

Daily Weather History Graph

Daily Weather History Graph

Search for Another Location

Airport:

Trip Planner

Search our weather history database for the weather conditions in past years. The results will help you decide how hot, cold, wet, or windy it might be!

Date:

Astronomy

Dec. 18, 2013 Rise Set
Actual Time 7:19 AM EST 4:20 PM EST
Civil Twilight 6:46 AM EST 4:52 PM EST
Nautical Twilight 6:10 AM EST 5:28 PM EST
Astronomical Twilight 5:36 AM EST 6:03 PM EST
Moon 5:52 PM EST (12/18) 7:55 AM EST (12/18)
Length of Visible Light 10h 06m
Length of Day
9h 01m
Full, 98% of the Moon is Illuminated
Dec 18
Full
Dec 25
Last Quarter
Jan 1
New
Jan 7
First Quarter
Jan 15
Full

Hourly Weather History & Observations

Time (EST) Temp. Windchill Dew Point Humidity Pressure Visibility Wind Dir Wind Speed Gust Speed Precip Events Conditions
12:54 AM 18.0 °F - 12.0 °F 78% 29.96 in 10.0 mi Calm Calm - N/A   Overcast
1:54 AM 17.1 °F - 12.0 °F 81% 29.96 in 10.0 mi Calm Calm - N/A   Overcast
2:54 AM 17.1 °F - 12.0 °F 81% 29.99 in 8.0 mi Calm Calm - N/A   Overcast
3:54 AM 16.0 °F - 12.0 °F 84% 29.98 in 10.0 mi Calm Calm - N/A   Overcast
4:54 AM 14.0 °F - 10.0 °F 84% 29.96 in 8.0 mi Calm Calm - N/A   Mostly Cloudy
5:14 AM 12.2 °F - 8.6 °F 85% 29.92 in 9.0 mi Calm Calm - N/A   Mostly Cloudy
5:24 AM 12.2 °F - 10.4 °F 92% 29.92 in 9.0 mi Calm Calm - N/A   Scattered Clouds
5:54 AM 10.0 °F - 7.0 °F 87% 29.98 in 7.0 mi Calm Calm - N/A   Clear
6:41 AM 6.8 °F - 3.2 °F 85% 29.94 in 5.0 mi Calm Calm - N/A   Overcast
6:54 AM 8.1 °F - 3.9 °F 83% 29.99 in 5.0 mi Calm Calm - N/A   Overcast
7:06 AM 10.4 °F - 6.8 °F 85% 29.94 in 7.0 mi Calm Calm - N/A   Overcast
7:54 AM 12.0 °F - 8.1 °F 84% 30.00 in 8.0 mi Calm Calm - N/A   Overcast
8:22 AM 14.0 °F - 10.4 °F 86% 29.95 in 2.5 mi Calm Calm - 0.00 in Snow Light Snow
8:54 AM 16.0 °F - 12.9 °F 88% 30.00 in 2.0 mi Calm Calm - 0.00 in Snow Light Snow
9:08 AM 15.8 °F - 12.2 °F 86% 29.96 in 1.8 mi Calm Calm - 0.00 in Snow Light Snow
9:36 AM 17.6 °F - 12.2 °F 79% 29.95 in 2.5 mi Calm Calm - 0.00 in Snow Light Snow
9:40 AM 17.6 °F - 12.2 °F 79% 29.96 in 3.0 mi Calm Calm - 0.00 in Snow Light Snow
9:54 AM 19.0 °F - 12.9 °F 77% 30.00 in 6.0 mi Calm Calm - 0.00 in   Haze
10:54 AM 19.9 °F - 14.0 °F 78% 29.99 in 7.0 mi Calm Calm - N/A   Overcast
11:54 AM 21.9 °F - 16.0 °F 78% 29.98 in 3.0 mi Calm Calm - 0.00 in Snow Light Snow
11:59 AM 23.0 °F - 15.8 °F 74% 29.94 in 1.8 mi Calm Calm - 0.00 in Snow Light Snow
12:16 PM 21.2 °F - 15.8 °F 80% 29.94 in 3.0 mi Calm Calm - 0.00 in Snow Light Snow
12:54 PM 24.1 °F - 17.1 °F 75% 29.98 in 10.0 mi Calm Calm - 0.00 in   Overcast
1:54 PM 25.0 °F 19.3 °F 18.0 °F 75% 29.98 in 10.0 mi SW 4.6 mph - N/A   Overcast
2:54 PM 27.0 °F - 19.0 °F 72% 29.98 in 10.0 mi Calm Calm - N/A   Overcast
3:12 PM 28.4 °F 22.2 °F 19.4 °F 69% 29.95 in 10.0 mi West 5.8 mph - N/A   Mostly Cloudy
3:54 PM 27.0 °F 20.5 °F 18.0 °F 69% 29.99 in 10.0 mi SW 5.8 mph - N/A   Overcast
4:54 PM 26.1 °F 17.6 °F 18.0 °F 71% 30.00 in 10.0 mi SW 8.1 mph - N/A   Mostly Cloudy
5:54 PM 27.0 °F 21.6 °F 18.0 °F 69% 30.03 in 10.0 mi Variable 4.6 mph - N/A   Overcast
6:54 PM 25.0 °F - 18.0 °F 75% 30.04 in 10.0 mi Calm Calm - N/A   Overcast
7:54 PM 24.1 °F - 18.0 °F 77% 30.05 in 10.0 mi Calm Calm - N/A   Overcast
8:54 PM 27.0 °F 19.5 °F 17.1 °F 66% 30.05 in 10.0 mi SSW 6.9 mph - N/A   Overcast
9:54 PM 28.0 °F 21.7 °F 17.1 °F 63% 30.06 in 10.0 mi SW 5.8 mph - N/A   Overcast
10:54 PM 28.0 °F 24.2 °F 17.1 °F 63% 30.06 in 10.0 mi SSW 3.5 mph - N/A   Overcast
11:54 PM 28.0 °F 22.8 °F 17.1 °F 63% 30.06 in 10.0 mi SW 4.6 mph - N/A   Overcast